Lid_Strength_Index
12 13 13 11 11 11 12 12 13 11 10 11 11 11 9 8 8 8 9 8 8 8 7 5 5 4 4 3 3 3 3 3 3 4 3 4 4 3 3 3 2 2 2 1
13 15 11 9 9 10 11 12 13 11 10 11 11 11 9 8 8 8 7 8 8 7 6 5 5 5 4 4 3 3 3 3 3 3 3 3 3 3 3 3 2 1 2 2
15 13 10 10 11 11 11 12 12 12 10 10 12 12 11 9 8 7 7 7 8 7 6 6 5 5 4 4 3 3 3 3 3 3 3 4 3 3 3 3 3 2 1 1
15 12 12 12 12 12 13 10 10 11 13 15 11 16 12 10 9 9 8 8 8 7 5 5 5 6 5 5 3 3 3 3 3 3 4 5 5 5 4 4 3 3 2 2
15 13 13 13 13 11 12 8 10 11 13 14 13 15 13 11 11 9 9 8 8 7 6 5 5 5 5 4 3 3 3 3 3 3 4 4 5 4 4 3 4 3 2 2
13 10 11 11 10 10 8 10 10 11 14 16 13 14 14 12 10 9 8 8 7 7 5 5 5 4 5 5 3 4 4 4 3 3 3 4 4 4 4 4 4 3 3 3
13 13 11 10 12 11 11 14 17 18 17 18 12 14 12 10 9 8 8 8 7 6 6 6 5 5 6 4 4 4 4 4 4 3 3 3 3 4 4 4 4 3 3 3
15 16 12 10 11 12 12 12 16 20 20 17 12 15 12 9 8 8 8 7 7 7 6 5 5 5 5 4 4 4 4 4 3 3 3 3 3 3 3 3 4 4 3 3
14 14 9 9 9 10 12 13 10 14 14 16 14 12 10 9 8 8 8 7 7 7 6 5 5 5 5 5 4 4 4 4 3 3 3 3 3 4 3 3 3 3 3 2
12 16 11 9 8 9 12 10 14 15 19 20 16 15 13 11 10 9 9 8 8 7 6 6 5 6 5 4 4 4 4 4 3 3 3 3 3 3 3 3 3 3 3 3
12 14 13 10 12 12 13 13 14 13 15 18 19 16 11 10 9 9 8 8 8 7 6 5 5 6 5 5 5 4 5 3 4 3 3 3 3 3 3 3 3 3 3 2
12 14 15 13 11 9 10 12 13 14 16 14 15 14 9 9 8 7 7 7 7 7 6 5 5 6 6 5 5 4 5 4 4 3 3 3 3 3 3 3 3 2 2 2
12 15 16 15 13 11 12 12 11 13 13 15 15 14 9 9 9 7 8 7 7 7 7 6 7 6 6 5 4 4 4 4 4 3 3 3 3 3 3 3 2 2 2 2
12 14 14 16 14 12 13 12 12 12 15 14 13 13 11 9 9 8 8 7 7 7 6 6 6 6 5 4 4 4 4 4 3 4 3 4 3 3 3 3 3 2 2 2
14 17 14 12 11 12 11 12 12 13 12 14 12 12 11 9 9 8 7 8 7 7 7 6 6 6 6 5 4 4 4 4 3 4 3 3 3 3 2 2 3 2 2 1
14 17 14 14 11 11 13 11 11 11 11 11 11 12 9 8 7 7 7 7 7 7 6 6 6 6 5 5 4 3 4 4 3 4 3 3 3 3 3 3 3 3 3 2
15 16 17 17 11 12 14 12 12 11 10 10 12 10 9 10 8 7 7 7 7 6 5 6 5 6 5 4 3 4 4 4 3 4 3 3 3 3 3 3 3 3 4 4
14 16 16 18 14 18 13 10 10 11 10 9 10 10 9 8 6 6 6 6 7 6 6 5 5 5 5 4 3 4 4 4 3 4 3 3 3 3 3 3 4 4 5 5
13 15 18 18 17 14 12 10 11 12 12 9 8 9 8 7 9 9 6 5 6 6 5 5 5 5 5 5 4 3 5 4 3 3 3 3 3 3 3 4 5 4 4 6
11 13 16 16 18 18 13 9 8 9 13 9 8 9 9 8 10 9 6 5 5 5 5 5 5 5 5 5 4 4 5 4 3 3 3 3 3 3 3 3 4 4 5 4
15 15 17 16 17 14 10 8 8 13 13 9 8 9 9 8 7 7 6 5 5 5 5 5 5 5 5 5 4 4 5 5 3 2 2 3 3 3 4 4 4 4 4 4
16 16 16 15 17 18 9 9 12 11 9 8 8 8 9 7 8 8 6 5 5 5 5 5 6 6 5 5 4 4 5 4 3 3 2 3 3 2 3 4 4 4 4 5
15 13 15 13 14 10 9 10 9 10 10 9 7 7 7 8 8 8 7 5 5 5 5 5 5 6 6 5 4 5 4 5 4 4 4 3 3 3 3 4 4 4 4 5
12 10 12 12 10 10 9 9 9 9 9 9 6 6 8 9 8 7 7 5 5 5 5 5 5 6 6 5 4 4 5 5 4 4 5 4 3 4 3 2 3 3 4 5
11 10 12 13 10 10 9 10 9 9 9 9 8 5 6 8 8 6 6 5 4 4 4 4 5 6 6 5 5 4 5 5 5 4 5 4 3 3 2 2 3 3 3 3
10 11 13 14 11 11 11 9 9 10 9 9 8 6 5 5 7 7 6 4 4 4 4 4 5 5 5 5 5 5 4 4 5 5 5 4 4 3 2 2 5 10 7 9